This is the latest recevied weather packets stored in our database for station/object KC5EZZ. If no packets are shown the sender has not sent any weather packets the latest 10 day(s).
| Time | Temp. | Humidity | Pressure | Rain* | Wind** | Luminosity | Snow |
|---|---|---|---|---|---|---|---|
| 1777669682 | 13.89° C | 86% | 0 hPa | 0 mm | - | - | - |
| 1777669382 | 12.78° C | 85% | 0 hPa | 0 mm | - | - | - |
| 1777669082 | 12.78° C | 87% | 0 hPa | 0 mm | - | - | - |
| 1777668782 | 12.78° C | 88% | 0 hPa | 0 mm | - | - | - |
| 1777668482 | 13.33° C | 89% | 0 hPa | 0 mm | - | - | - |
| 1777668182 | 13.33° C | 88% | 0 hPa | 0.25 mm | - | - | - |
| 1777667882 | 12.22° C | 90% | 0 hPa | 0.25 mm | - | - | - |
| 1777667582 | 12.78° C | 91% | 0 hPa | 0.25 mm | - | - | - |
| 1777667282 | 12.22° C | 92% | 0 hPa | 0.51 mm | - | - | - |
| 1777666982 | 12.78° C | 92% | 0 hPa | 0.51 mm | - | - | - |
| 1777666682 | 12.78° C | 93% | 0 hPa | 0.51 mm | - | - | - |
| 1777666382 | 12.22° C | 94% | 0 hPa | 0.76 mm | - | - | - |
| 1777666082 | 11.67° C | 94% | 0 hPa | 0.76 mm | - | - | - |
| 1777665782 | 11.11° C | 94% | 0 hPa | 0.76 mm | - | - | - |
| 1777665482 | 11.11° C | 94% | 0 hPa | 1.02 mm | - | - | - |
| 1777665182 | 11.11° C | 94% | 0 hPa | 1.02 mm | - | - | - |
| 1777664882 | 11.11° C | 94% | 0 hPa | 1.27 mm | - | - | - |
| 1777664582 | 11.11° C | 94% | 0 hPa | 1.27 mm | - | - | - |
| 1777664282 | 11.67° C | 94% | 0 hPa | 1.52 mm | - | - | - |
| 1777663982 | 10.56° C | 93% | 0 hPa | 2.03 mm | - | - | - |
| 1777663682 | 10.56° C | 94% | 0 hPa | 2.29 mm | - | - | - |
| 1777663382 | 11.11° C | 94% | 0 hPa | 2.79 mm | - | - | - |
| 1777663082 | 11.11° C | 94% | 0 hPa | 3.3 mm | - | - | - |
| 1777662782 | 11.67° C | 94% | 0 hPa | 3.56 mm | - | - | - |
| 1777662482 | 11.11° C | 94% | 0 hPa | 4.06 mm | - | - | - |
* Rain latest hour (hover to see other rain measurements)
** Current wind speed in m/s (hover to see current wind gust speed)